Regional Weather Roundup
Issued by NWS

Home | Current Version | Previous Version | Text Only | Print | Product List | Glossary On
Versions: 1 2 3 4 5 6 7 8 9 10 11 12 13 14 15 16 17 18 19 20 21 22 23 24 25 26 27 28 29 30 31 32 33 34 35 36 37 38 39 40 41 42 43 44 45 46 47 48 49 50
273
ASUS44 KJAN 282020
RWRMS

MISSISSIPPI HOURLY WEATHER ROUNDUP
NATIONAL WEATHER SERVICE JACKSON MS
300 PM CDT THU JUL 28 2016

NOTE: "FAIR: INDICATES FEW OR NO CLOUDS BELOW 12,000 FEET WITH NO
SIGNIFICANT WEATHER AND/OR OBSTRUCTIONS TO VISIBILITY.

MSZ001>002-007>008-010>013-018>021-025>028-034>036-282100-
NORTHWEST MISSISSIPPI

CITY           SKY/WX    TMP DP  RH WIND       PRES   REMARKS
CLEVELAND      DRIZZLE   77  77 100 SW13      29.98F
GREENWOOD      LGT RAIN  77  74  90 SW10      30.00F
GREENVILLE     LGT RAIN  80  75  84 SW13      29.99F
OXFORD         PTSUNNY   82  72  69 SW10G17   29.99S
WINONA         DRIZZLE   76  74  94 SW9       30.01S
$$

MSZ003>006-009-014>017-022>024-029>033-037>039-282100-
NORTHEAST MISSISSIPPI

CITY           SKY/WX    TMP DP  RH WIND       PRES   REMARKS
ABERDEEN       FAIR      81  63  54 SW8       29.99F
COLUMBUS AFB   CLOUDY    82  77  83 SW8       29.97F HX  91
GOLDN TRIANGLE PTSUNNY   84  72  65 SW12      29.99S
TUPELO         PTSUNNY   87  74  64 SW9G17    29.95F HX  95
$$

MSZ040-058-282100-
CENTRAL MISSISSIPPI

CITY           SKY/WX    TMP DP  RH WIND       PRES   REMARKS
JACKSON INTL   PTSUNNY   82  72  71 W9        30.03S
JACKSON HAWKNS CLOUDY    81  74  79 W6        30.03F
MADISON        FAIR      79  72  78 W6        30.02F
MERIDIAN KEY   CLOUDY    82  74  76 SW9       30.03S
MERIDIAN NAS   LGT RAIN  82  72  71 W7        30.02R
VICKSBURG VKS  PTCLDY    79  73  83 VRB6      30.03F
$$

MSZ059>079-282100-
SOUTH MISSISSIPPI

CITY           SKY/WX    TMP DP  RH WIND       PRES   REMARKS
COLUMBIA       FAIR      91  73  55 VRB6G12   30.05F HX 100
HATTIESBURG    SUNNY     91  72  53 SW5       30.01F HX  98
MCCOMB         CLOUDY    84  70  62 N12       30.02F
NATCHEZ        CLOUDY    73  70  88 SW3       30.06R
PINE BELT      MOSUNNY   90  72  55 SW6       30.03F HX  96
$$

MSZ080>082-282100-
COASTAL MISSISSIPPI

CITY           SKY/WX    TMP DP  RH WIND       PRES   REMARKS
BAY ST LOUIS   MOSUNNY   91  66  43 S10       30.01F HX  94
BILOXI         MOSUNNY   89  78  70 S10       30.02F HX 103
PASCAGOULA     SUNNY     90  76  63 S9        30.02F HX 101
GULFPORT       PTSUNNY   90  77  65 S10       30.01F HX 103
$$

LAZ007>009-015>016-023>026-282100-
NORTHEAST LOUISIANA

CITY           SKY/WX    TMP DP  RH WIND       PRES   REMARKS
BASTROP        CLOUDY    76  75  98 W6        30.01F
TALLULAH/VBURG LGT RAIN  77  73  87 SW5       30.03F
VIDALIA        LGT RAIN  75  72  90 N3        30.06F
$$




USA.gov is the U.S. government's official web portal to all federal, state and local government web resources and services.